TimeEDT,TemperatureF,Dew PointF,Humidity,Sea Level PressureIn,VisibilityMPH,Wind Direction,Wind SpeedMPH,Gust SpeedMPH,PrecipitationIn,Events,Conditions,WindDirDegrees,DateUTC
12:15 AM,61.0,57.4,88,29.99,2.0,SE,4.6,-,N/A,,Clear,140,2013-05-17 04:15:00
12:35 AM,60.6,57.0,88,30.00,2.0,Calm,Calm,-,N/A,,Clear,0,2013-05-17 04:35:00
12:55 AM,59.9,56.5,88,30.01,0.2,Calm,Calm,-,N/A,Fog,Fog,0,2013-05-17 04:55:00
1:15 AM,59.7,56.5,89,30.01,0.5,SSE,3.5,-,N/A,Fog,Fog,160,2013-05-17 05:15:00
1:35 AM,59.7,56.7,90,30.00,0.5,South,4.6,-,N/A,Fog,Fog,180,2013-05-17 05:35:00
1:55 AM,61.2,58.1,90,30.01,1.5,South,3.5,-,N/A,,Overcast,180,2013-05-17 05:55:00
2:15 AM,62.1,59.0,90,30.00,1.0,South,3.5,-,N/A,,Overcast,190,2013-05-17 06:15:00
2:35 AM,62.1,59.0,90,30.00,0.5,SSW,5.8,-,N/A,Fog,Fog,200,2013-05-17 06:35:00
2:55 AM,61.9,59.0,90,30.00,0.2,SSW,3.5,-,N/A,Fog,Fog,200,2013-05-17 06:55:00
3:15 AM,61.9,59.0,90,30.00,0.5,SSW,4.6,-,N/A,Fog,Fog,200,2013-05-17 07:15:00
3:35 AM,61.9,59.0,90,30.00,0.2,Calm,Calm,-,N/A,Fog,Fog,0,2013-05-17 07:35:00
3:55 AM,61.5,58.3,89,30.01,0.2,Calm,Calm,-,N/A,Fog,Fog,0,2013-05-17 07:55:00
4:15 AM,61.0,58.1,90,30.01,0.2,Calm,Calm,-,N/A,Fog,Fog,0,2013-05-17 08:15:00
4:35 AM,61.0,58.1,90,30.01,0.2,Calm,Calm,-,N/A,Fog,Fog,0,2013-05-17 08:35:00
4:55 AM,61.0,58.1,90,30.02,0.2,SSW,4.6,-,N/A,Fog,Fog,200,2013-05-17 08:55:00
5:15 AM,60.8,58.1,91,30.02,0.2,South,3.5,-,N/A,Fog,Fog,190,2013-05-17 09:15:00
5:35 AM,60.4,57.6,90,30.03,0.2,SSW,3.5,-,N/A,Fog,Fog,200,2013-05-17 09:35:00
5:55 AM,60.3,57.4,90,30.03,0.2,Calm,Calm,-,N/A,Fog,Fog,0,2013-05-17 09:55:00
6:15 AM,60.3,57.4,90,30.04,0.2,Calm,Calm,-,N/A,Fog,Fog,0,2013-05-17 10:15:00
6:35 AM,60.1,57.2,90,30.05,0.2,Calm,Calm,-,N/A,Fog,Fog,0,2013-05-17 10:35:00
6:55 AM,60.1,57.2,90,30.06,0.2,Calm,Calm,-,N/A,Fog,Fog,0,2013-05-17 10:55:00
7:15 AM,60.3,57.4,90,30.07,0.2,Calm,Calm,-,N/A,Fog,Fog,0,2013-05-17 11:15:00
7:35 AM,60.6,57.7,90,30.07,0.2,Calm,Calm,-,N/A,Fog,Fog,0,2013-05-17 11:35:00
8:15 AM,61.2,58.3,90,30.08,0.5,SSE,4.6,-,N/A,Fog,Fog,150,2013-05-17 12:15:00
8:35 AM,61.5,58.6,90,30.08,1.2,SSE,3.5,-,N/A,,Overcast,150,2013-05-17 12:35:00
8:55 AM,61.9,59.2,91,30.08,1.8,SE,3.5,-,N/A,,Overcast,140,2013-05-17 12:55:00
9:15 AM,62.6,59.7,90,30.08,2.5,SSE,5.8,-,N/A,,Overcast,160,2013-05-17 13:15:00
9:35 AM,63.1,60.3,90,30.08,3.0,SE,4.6,-,N/A,,Overcast,130,2013-05-17 13:35:00
9:55 AM,64.0,61.0,90,30.08,4.0,ESE,5.8,-,N/A,,Overcast,120,2013-05-17 13:55:00
10:15 AM,64.4,59.4,84,30.08,5.0,East,6.9,-,N/A,,Haze,100,2013-05-17 14:15:00
10:35 AM,66.7,59.0,76,30.09,5.0,SE,6.9,-,N/A,,Haze,130,2013-05-17 14:35:00
10:55 AM,69.1,59.9,72,30.09,5.0,ESE,5.8,-,N/A,,Haze,110,2013-05-17 14:55:00
11:15 AM,70.7,60.4,70,30.10,7.0,SSE,3.5,-,N/A,,Overcast,150,2013-05-17 15:15:00
11:35 AM,71.4,60.6,69,30.10,7.0,ENE,6.9,-,N/A,,Overcast,60,2013-05-17 15:35:00
11:55 AM,72.5,60.8,67,30.09,7.0,ESE,5.8,-,N/A,,Overcast,110,2013-05-17 15:55:00
12:15 PM,73.4,60.3,63,30.09,10.0,Calm,Calm,-,N/A,,Overcast,0,2013-05-17 16:15:00
12:35 PM,73.8,60.4,63,30.09,7.0,SE,3.5,-,N/A,,Overcast,140,2013-05-17 16:35:00
12:55 PM,74.7,61.0,62,30.08,7.0,Calm,Calm,-,N/A,,Mostly Cloudy,0,2013-05-17 16:55:00
1:15 PM,76.1,60.8,59,30.08,10.0,SE,5.8,-,N/A,,Mostly Cloudy,130,2013-05-17 17:15:00
1:35 PM,76.6,60.3,57,30.08,10.0,Calm,Calm,-,N/A,,Mostly Cloudy,0,2013-05-17 17:35:00
1:55 PM,77.5,59.9,54,30.07,10.0,South,3.5,-,N/A,,Mostly Cloudy,170,2013-05-17 17:55:00
2:15 PM,78.6,59.2,51,30.06,10.0,Calm,Calm,-,N/A,,Scattered Clouds,0,2013-05-17 18:15:00
2:35 PM,79.3,57.9,48,30.06,10.0,SSE,6.9,-,N/A,,Clear,160,2013-05-17 18:35:00
3:15 PM,81.1,54.7,40,30.05,10.0,Calm,Calm,-,N/A,,Clear,0,2013-05-17 19:15:00
3:35 PM,80.4,53.4,39,30.04,10.0,East,5.8,-,N/A,,Clear,90,2013-05-17 19:35:00
3:55 PM,79.9,54.1,41,30.04,10.0,East,4.6,-,N/A,,Clear,90,2013-05-17 19:55:00
4:15 PM,79.9,55.2,43,30.03,10.0,SE,6.9,-,N/A,,Clear,130,2013-05-17 20:15:00
4:35 PM,81.0,55.2,41,30.03,10.0,SE,4.6,-,N/A,,Scattered Clouds,130,2013-05-17 20:35:00
4:55 PM,81.7,55.2,40,30.03,10.0,ESE,3.5,-,N/A,,Scattered Clouds,120,2013-05-17 20:55:00
5:15 PM,80.6,55.4,42,30.03,10.0,ESE,8.1,-,N/A,,Mostly Cloudy,110,2013-05-17 21:15:00
5:35 PM,80.1,55.4,43,30.03,10.0,East,6.9,-,N/A,,Scattered Clouds,80,2013-05-17 21:35:00
5:55 PM,80.6,56.1,43,30.03,10.0,SE,5.8,-,N/A,,Clear,140,2013-05-17 21:55:00
6:15 PM,78.6,53.8,42,30.03,10.0,ESE,4.6,-,N/A,,Clear,120,2013-05-17 22:15:00
6:35 PM,79.2,53.8,41,30.03,10.0,SSE,8.1,-,N/A,,Clear,150,2013-05-17 22:35:00
6:55 PM,78.1,54.7,44,30.03,10.0,SE,4.6,-,N/A,,Clear,140,2013-05-17 22:55:00
7:15 PM,77.4,56.8,49,30.04,10.0,South,3.5,-,N/A,,Clear,170,2013-05-17 23:15:00
7:35 PM,77.0,59.2,54,30.05,10.0,South,6.9,-,N/A,,Scattered Clouds,170,2013-05-17 23:35:00
7:55 PM,76.1,59.2,56,30.05,10.0,South,6.9,-,N/A,Thunderstorm,Mostly Cloudy,170,2013-05-17 23:55:00
8:15 PM,74.8,58.8,57,30.05,10.0,South,5.8,-,N/A,Thunderstorm,Scattered Clouds,170,2013-05-18 00:15:00
8:35 PM,73.6,59.2,61,30.06,10.0,SSW,9.2,-,N/A,Thunderstorm,Scattered Clouds,200,2013-05-18 00:35:00
8:55 PM,72.9,59.2,62,30.08,10.0,SW,11.5,19.6,N/A,,Clear,220,2013-05-18 00:55:00
9:15 PM,70.3,56.7,62,30.08,10.0,SW,8.1,-,N/A,,Clear,230,2013-05-18 01:15:00
9:35 PM,68.9,56.8,65,30.09,10.0,SW,6.9,-,N/A,,Clear,230,2013-05-18 01:35:00
9:55 PM,68.4,56.7,66,30.09,10.0,SW,4.6,-,N/A,,Clear,220,2013-05-18 01:55:00
10:15 PM,68.0,56.8,67,30.09,10.0,Calm,Calm,-,N/A,,Clear,0,2013-05-18 02:15:00
10:35 PM,67.1,57.0,70,30.09,10.0,SSW,3.5,-,N/A,,Clear,200,2013-05-18 02:35:00
10:55 PM,66.6,57.2,72,30.08,10.0,Calm,Calm,-,N/A,,Clear,0,2013-05-18 02:55:00
11:15 PM,65.8,57.2,74,30.08,10.0,Calm,Calm,-,N/A,,Clear,0,2013-05-18 03:15:00
11:35 PM,65.8,57.0,73,30.08,10.0,East,3.5,-,N/A,,Clear,90,2013-05-18 03:35:00
11:55 PM,64.6,56.8,76,30.07,10.0,ENE,3.5,-,N/A,,Scattered Clouds,60,2013-05-18 03:55:00